Location: Catstown
(52.4386°N, 7.2633°W)
Time: 07:02:41
(UTC+00:00)

Terra - Pass Details

Date: 18 September 2020
Orbit: 701 x 703 km, 98.2° (Epoch: 22 October)

Event Time Altitude Azimuth Distance (km) Brightness Sun altitude
Exits shadow 23:36:57 17° 299° (WNW) 1,744 4.2 -35.3°
Drops below altitude 10° 23:38:45 10° 319° (NW) 2,182 5.0 -35.4°
Sets 23:41:33 0° 335° (NNW) 3,106 6.1 -35.5°
